Estación de San Julian
Ultimos registro cada 15 minutos 73
| N° | Estación | Fecha / Hora | Temperatura | Humedad | Lluvia | Velocidad | Dirección | Radiación | Presion |
| 73 | San Julian | 06-09-2026 19:00 | 18 | 67,1 | 0 | 1,5 | 234 | 83,1 | 982 |
| 72 | San Julian | 06-09-2026 18:45 | 18,6 | 64,8 | 0 | 1,5 | 237 | 138,1 | 981,9 |
| 71 | San Julian | 06-09-2026 18:30 | 19,8 | 62,4 | 0 | 1,5 | 237 | 118,1 | 981,6 |
| 70 | San Julian | 06-09-2026 18:15 | 20,7 | 60,2 | 0 | 1,5 | 229 | 243,1 | 981,4 |
| 69 | San Julian | 06-09-2026 18:00 | 20,7 | 62 | 0 | 2 | 237 | 293,1 | 981,4 |
| 68 | San Julian | 06-09-2026 17:45 | 21,1 | 58,9 | 0 | 2 | 241 | 344,4 | 981,6 |
| 67 | San Julian | 06-09-2026 17:30 | 21,2 | 60,8 | 0 | 2,5 | 241 | 395,6 | 981,5 |
| 66 | San Julian | 06-09-2026 17:15 | 21,1 | 61,3 | 0 | 2,5 | 241 | 445,6 | 981,4 |
| 65 | San Julian | 06-09-2026 17:00 | 21,9 | 58,1 | 0 | 2 | 237 | 490,6 | 981,3 |
| 64 | San Julian | 06-09-2026 16:45 | 22,3 | 57,9 | 0 | 2 | 240 | 533,1 | 981,3 |
| 63 | San Julian | 06-09-2026 16:30 | 22,7 | 56,3 | 0 | 2 | 236 | 574,4 | 981,1 |
| 62 | San Julian | 06-09-2026 16:15 | 23,2 | 53,2 | 0 | 2 | 236 | 614,4 | 981,3 |
| 61 | San Julian | 06-09-2026 16:00 | 23,1 | 53,4 | 0 | 2 | 239 | 654,4 | 981,2 |
| 60 | San Julian | 06-09-2026 15:45 | 23,6 | 50,8 | 0 | 2 | 234 | 689,4 | 981,4 |
| 59 | San Julian | 06-09-2026 15:30 | 23 | 52,6 | 0 | 2 | 239 | 716,9 | 981,4 |
| 58 | San Julian | 06-09-2026 15:15 | 23,5 | 51,8 | 0 | 2 | 239 | 741,9 | 981,5 |
| 57 | San Julian | 06-09-2026 15:00 | 23,4 | 48,7 | 0 | 2 | 240 | 760,6 | 981,3 |
| 56 | San Julian | 06-09-2026 14:45 | 23,5 | 49,6 | 0 | 1,5 | 237 | 783,1 | 981,4 |
| 55 | San Julian | 06-09-2026 14:30 | 22,8 | 48,6 | 0 | 1,5 | 233 | 799,4 | 981,7 |
| 54 | San Julian | 06-09-2026 14:15 | 22,5 | 53,2 | 0 | 1,5 | 236 | 806,9 | 981,8 |
| 53 | San Julian | 06-09-2026 14:00 | 22,2 | 54,1 | 0 | 2 | 239 | 808,1 | 981,9 |
| 52 | San Julian | 06-09-2026 13:45 | 21,9 | 55,4 | 0 | 1,5 | 239 | 813,1 | 982,1 |
| 51 | San Julian | 06-09-2026 13:30 | 21,9 | 56,4 | 0 | 1,5 | 236 | 808,1 | 982,2 |
| 50 | San Julian | 06-09-2026 13:15 | 21,7 | 54,7 | 0 | 1,5 | 234 | 798,1 | 982 |
| 49 | San Julian | 06-09-2026 13:00 | 21,5 | 55,3 | 0 | 1,5 | 234 | 793,1 | 982,1 |
| 48 | San Julian | 06-09-2026 12:45 | 21,8 | 54,3 | 0 | 0,5 | 240 | 779,4 | 982,3 |
| 47 | San Julian | 06-09-2026 12:30 | 21,9 | 54,5 | 0 | 0,5 | 225 | 759,4 | 982,1 |
| 46 | San Julian | 06-09-2026 12:15 | 20,9 | 56,1 | 0 | 0 | 256 | 736,9 | 982,4 |
| 45 | San Julian | 06-09-2026 12:00 | 19,8 | 60,9 | 0 | 0 | 241 | 708,1 | 982,3 |
| 44 | San Julian | 06-09-2026 11:45 | 19 | 64,7 | 0 | 0 | 278 | 676,9 | 982,1 |
| 43 | San Julian | 06-09-2026 11:30 | 18,4 | 66,7 | 0 | 0 | 271 | 644,4 | 982,3 |
| 42 | San Julian | 06-09-2026 11:15 | 17,2 | 70,6 | 0 | 0,5 | 260 | 600,6 | 982,3 |
| 41 | San Julian | 06-09-2026 11:00 | 16,3 | 71,3 | 0 | 0 | 277 | 563,1 | 982,2 |
| 40 | San Julian | 06-09-2026 10:45 | 15,4 | 74 | 0 | 0 | 279 | 521,9 | 982,2 |
| 39 | San Julian | 06-09-2026 10:30 | 15,5 | 78,2 | 0 | 0 | 279 | 475,6 | 982,1 |
| 38 | San Julian | 06-09-2026 10:15 | 13,9 | 82,2 | 0 | 0 | 264 | 428,1 | 982,1 |
| 37 | San Julian | 06-09-2026 10:00 | 12,5 | 83,4 | 0 | 0 | 271 | 378,1 | 982 |
| 36 | San Julian | 06-09-2026 09:45 | 13,4 | 86,1 | 0 | 0 | 211 | 326,9 | 981,8 |
| 35 | San Julian | 06-09-2026 09:30 | 12,5 | 88 | 0 | 0 | 233 | 279,4 | 981,7 |
| 34 | San Julian | 06-09-2026 09:15 | 10,9 | 90,8 | 0 | 0 | 257 | 235,6 | 981,6 |
| 33 | San Julian | 06-09-2026 09:00 | 9,8 | 94,3 | 0 | 0 | 257 | 36,9 | 981,4 |
| 32 | San Julian | 06-09-2026 08:45 | 7,1 | 94,5 | 0 | 0 | 268 | 80,6 | 981,6 |
| 31 | San Julian | 06-09-2026 08:30 | 7,1 | 94,2 | 0 | 0 | 270 | 19,4 | 981,2 |
| 30 | San Julian | 06-09-2026 08:15 | 8,1 | 94,5 | 0 | 0 | 270 | 11,9 | 981 |
| 29 | San Julian | 06-09-2026 08:00 | 8,5 | 94,3 | 0 | 0 | 243 | 3,1 | 980,9 |
| 28 | San Julian | 06-09-2026 07:45 | 8,4 | 94,1 | 0 | 0 | 237 | 0,6 | 980,9 |
| 27 | San Julian | 06-09-2026 07:30 | 8,4 | 94,1 | 0 | 0 | 236 | 0,6 | 980,8 |
| 26 | San Julian | 06-09-2026 07:15 | 8,3 | 93,6 | 0 | 0 | 244 | 0,6 | 980,8 |
| 25 | San Julian | 06-09-2026 07:00 | 8,9 | 93,5 | 0 | 0 | 253 | 0,6 | 980,8 |
| 24 | San Julian | 06-09-2026 06:45 | 8,8 | 94,1 | 0 | 0 | 251 | 0,6 | 980,8 |
| 23 | San Julian | 06-09-2026 06:30 | 9 | 94,1 | 0 | 0 | 253 | 0,6 | 980,9 |
| 22 | San Julian | 06-09-2026 06:15 | 8,6 | 93,7 | 0 | 0 | 253 | 0,6 | 980,9 |
| 21 | San Julian | 06-09-2026 06:00 | 8,6 | 94,9 | 0 | 0 | 251 | 0,6 | 981 |
| 20 | San Julian | 06-09-2026 05:45 | 7,3 | 94,6 | 0 | 0 | 253 | 0,6 | 980,8 |
| 19 | San Julian | 06-09-2026 05:30 | 7,4 | 94,4 | 0 | 0 | 253 | 0,6 | 980,9 |
| 18 | San Julian | 06-09-2026 05:15 | 7,7 | 94,2 | 0 | 0 | 253 | 0,6 | 980,9 |
| 17 | San Julian | 06-09-2026 05:00 | 7,5 | 93,4 | 0 | 0 | 253 | 0,6 | 980,9 |
| 16 | San Julian | 06-09-2026 04:45 | 7,5 | 92,4 | 0 | 0 | 253 | 0,6 | 981,1 |
| 15 | San Julian | 06-09-2026 04:30 | 8,5 | 92 | 0 | 0 | 253 | 0,6 | 981,1 |
| 14 | San Julian | 06-09-2026 04:15 | 8,8 | 91,8 | 0 | 0 | 253 | 0,6 | 981,2 |
| 13 | San Julian | 06-09-2026 04:00 | 8,9 | 91,3 | 0 | 0 | 253 | 0,6 | 981,4 |
| 12 | San Julian | 06-09-2026 03:45 | 8,9 | 90,8 | 0 | 0 | 253 | 0,6 | 981,6 |
| 11 | San Julian | 06-09-2026 03:30 | 9 | 91,3 | 0 | 0 | 253 | 0,6 | 981,4 |
| 10 | San Julian | 06-09-2026 03:15 | 8,5 | 90,6 | 0 | 0 | 253 | 0,6 | 981,4 |
| 9 | San Julian | 06-09-2026 03:00 | 9,1 | 90,3 | 0 | 0 | 253 | 0,6 | 981,4 |
| 8 | San Julian | 06-09-2026 02:45 | 8,6 | 91 | 0 | 0 | 253 | 0,6 | 981,4 |
| 7 | San Julian | 06-09-2026 02:30 | 9 | 90,9 | 0 | 0 | 253 | 0,6 | 981,8 |
| 6 | San Julian | 06-09-2026 02:15 | 8,4 | 91,1 | 0 | 0 | 253 | 0,6 | 981,7 |
| 5 | San Julian | 06-09-2026 02:00 | 9 | 90 | 0 | 0 | 253 | 0,6 | 981,7 |
| 4 | San Julian | 06-09-2026 01:45 | 9,9 | 90,5 | 0 | 0 | 253 | 0,6 | 981,5 |
| 3 | San Julian | 06-09-2026 01:30 | 9,4 | 89,8 | 0 | 0 | 253 | 0,6 | 981,8 |
| 2 | San Julian | 06-09-2026 01:15 | 9,7 | 89 | 0 | 0 | 253 | 0,6 | 982 |
| 1 | San Julian | 06-09-2026 01:00 | 9,9 | 88 | 0 | 0 | 253 | 0,6 | 982,1 |